Location: Newark
(33.6333°S, 78.8500°W)
Time: 14:03:26
(UTC+00:00)

Tiros 1 despin weight - Pass Details

Date: 23 September 2019
Orbit: 594 x 643 km, 48.2° (Epoch: 14 October)

Event Time Altitude Azimuth Distance (km) Brightness Sun altitude
Rises 12:37:03 0° 256° (WSW) 2,956 ? 18.5°
Reaches altitude 10° 12:41:11 10° 291° (WNW) 2,039 ? 19.3°
Maximum altitude 12:42:29 11° 307° (NW) 1,966 ? 19.6°
Drops below altitude 10° 12:43:47 10° 323° (NW) 2,032 ? 19.8°
Sets 12:47:53 0° 358° (N) 2,926 ? 20.7°
